#timestamp,LO_Frequency,Hit,StdDev 
1611673215.5,286047001.2,N
1611673235.3,286047000.6,N
1611673255.2,286047003.7,N
1611673275.0,286047003.1,N
1611673275.9,286047003.1,N
1611673295.8,286047003.8,N
1611673315.6,286047003.7,N
1611673335.4,286047004.1,N
1611673355.3,286047005.4,N
1611673375.1,286047010.5,Y
1611673395.9,286047015.5,P
1611673415.7,286047013.6,N
1611673435.5,286047010.3,N
1611673455.4,286047007.7,N
1611673475.2,286047008.2,N
1611673495.0,286047009.2,N
1611673495.9,286047009.2,N
1611673515.8,286047006.3,N
1611673535.6,286047006.4,N
1611673555.5,286047004.8,N
1611673575.3,286047003.0,N
1611673595.1,286047004.9,N
1611673615.9,286047003.8,N
1611673635.7,286047003.7,N
1611673655.6,286047002.8,N
1611673675.4,286046999.7,N
1611673695.2,286047004.3,N
1611673715.1,286047003.8,N
1611673716.0,286047003.8,N
1611673735.8,286047002.3,N
1611673755.6,286047002.7,N
1611673775.5,286047001.0,N
1611673795.3,286047002.1,N
1611673815.2,286047002.2,N
1611673835.9,286047002.2,N
1611673855.7,286047001.4,N
1611673875.6,286047002.6,N
1611673895.4,286047000.4,N
1611673915.3,286046999.8,N
1611673935.1,286047004.0,N
1611673936.0,286047004.0,N
1611673955.8,286047000.4,N
1611673975.7,286047000.6,N
1611673995.5,286047001.1,N
1611674015.3,286047000.7,N
1611674035.2,286047002.6,N
1611674055.0,286047001.7,N
1611674055.9,286047001.7,N
1611674075.8,286047002.1,N
1611674095.6,286047002.5,N
1611674115.4,286047002.0,N
1611674135.3,286047003.0,N
1611674155.1,286047005.3,Y
1611674175.9,286047002.8,P
1611674195.7,286046999.7,N
1611674215.5,286047000.7,N
1611674235.4,286046998.7,N
1611674255.2,286046998.8,N
1611674275.1,286046996.8,N
1611674276.0,286046996.8,N
1611674295.8,286046996.5,N
1611674315.6,286046996.7,N
1611674335.5,286046999.0,N
1611674355.3,286046999.5,N
1611674375.2,286046996.5,N
1611674395.9,286046999.6,N
1611674415.7,286046997.0,N
1611674435.6,286046996.8,N
1611674455.4,286046998.4,N
1611674475.2,286047000.8,N
1611674495.1,286047000.6,N
1611674496.0,286047000.6,N
1611674515.8,286047000.5,N
1611674535.7,286047002.3,N
1611674555.5,286047011.9,Y
1611674575.3,286046999.7,P
1611674595.2,286047001.8,P
1611674615.0,286047001.0,N
1611674615.9,286047001.0,N
1611674635.8,286047001.2,N
1611674655.6,286046998.3,N
1611674675.4,286047001.6,N
1611674695.3,286047001.5,N
1611674715.1,286047002.7,N
1611674735.9,286046999.8,N
1611674755.7,286047000.6,N
1611674775.5,286046999.0,N
1611674795.4,286047000.8,N
1611674815.2,286047002.1,N
1611674835.0,286047000.1,N
1611674835.9,286047000.1,N
1611674855.8,286047000.0,N
1611674875.6,286047000.4,N
1611674895.5,286047000.3,N
1611674915.3,286047002.8,N
1611674935.1,286047000.5,N
1611674955.9,286047000.5,N
1611674975.7,286047000.4,N
1611674995.6,286047001.1,N
1611675015.4,286047000.7,N
1611675035.2,286047000.4,N
1611675055.1,286047000.8,N
1611675056.0,286047000.8,N
1611675075.8,286047001.1,N
1611675095.6,286047002.3,N
1611675115.5,286047000.2,N
1611675135.3,286047000.5,N
1611675155.2,286047001.2,N
1611675175.9,286046999.2,N
1611675195.7,286046999.5,N
1611675215.6,286046999.6,N
1611675235.4,286046998.9,N
1611675255.3,286046998.4,N
1611675275.1,286047001.1,N
1611675276.0,286047001.1,N
1611675295.8,286046999.9,N
1611675315.7,286047000.1,N
1611675335.5,286047001.5,N
1611675355.4,286047005.6,Y
1611675375.2,286047003.8,P
1611675395.0,286047001.8,N
1611675395.9,286047001.8,N
1611675415.8,286047000.0,N
1611675435.6,286047001.9,N
1611675455.4,286047001.1,N
1611675475.3,286047001.1,N
1611675495.1,286047002.8,N
1611675515.9,286046998.9,N
1611675535.7,286047000.5,N
1611675555.5,286047000.3,N
1611675575.4,286047000.5,N
1611675595.2,286046996.5,N
1611675615.1,286046997.7,N
1611675616.0,286046997.7,N
1611675635.8,286046996.9,N
1611675655.6,286046997.2,N
1611675675.5,286046996.8,N
1611675695.3,286046996.8,N
1611675715.1,286046997.4,N
1611675735.9,286046995.0,N
1611675755.7,286046995.7,N
1611675775.6,286046996.2,N
1611675795.4,286046995.6,N
1611675815.2,286046996.9,N
1611675835.1,286046999.0,N
1611675836.0,286046999.0,N
1611675855.8,286046999.1,N
1611675875.7,286046998.4,N
1611675895.5,286046999.5,N
1611675915.3,286046999.2,N
1611675935.2,286046998.8,N
1611675955.0,286047000.2,N
1611675955.9,286047000.2,N
1611675975.8,286047000.6,N
1611675995.6,286047000.3,N
1611676015.4,286047000.3,N
1611676035.3,286047001.7,N
1611676055.1,286047002.7,N
1611676075.8,286047002.3,N
1611676095.7,286047002.1,N
1611676115.5,286047002.7,N
1611676135.4,286047002.5,N
1611676155.2,286047001.2,N
1611676175.0,286046999.3,N
1611676175.9,286046999.3,N
1611676195.8,286047000.0,N
1611676215.6,286047001.1,N
1611676235.5,286046998.8,N
1611676255.3,286046999.0,N
1611676275.1,286046998.6,N
1611676295.9,286046999.6,N
1611676315.7,286047000.2,N
1611676335.5,286047000.7,N
1611676355.4,286046999.8,N
1611676375.2,286047000.6,N
1611676395.1,286046998.3,N
1611676396.0,286046998.3,N
1611676415.8,286046998.8,N
1611676435.6,286046998.8,N
1611676455.5,286046998.6,N
1611676475.3,286047001.2,N
1611676495.2,286047001.2,N
1611676515.9,286046999.3,N
1611676535.7,286046998.3,N
1611676555.6,286047000.6,N
1611676575.4,286047000.4,N
1611676595.2,286047000.5,N
1611676615.1,286047000.3,N
1611676616.0,286047000.3,N
1611676635.8,286046999.7,N
1611676655.7,286047000.4,N
1611676675.5,286047000.6,N
1611676695.3,286047000.7,N
1611676715.2,286047002.2,N
1611676735.0,286047000.0,N
1611676735.9,286047000.0,N
1611676755.8,286047005.6,Y
1611676775.6,286047003.4,P
1611676795.4,286047004.0,N
